GW5177 Weather Reports


time (UTC)temp
C
wind
direction
speed
KPH
gust
KPH
rain 1hr
cm
rain 24hr
cm
rain mn
cm
humidity
%
barometer
mb
20260510203426 23 211 1.6 6.4 0.00 0.00 0.00 62 1016.8
20260510202926 24 115 0.0 6.4 0.00 0.00 0.00 59 1016.7
20260510202422 25 223 0.0 3.2 0.00 0.00 0.00 60 1016.7
20260510201918 25 177 0.0 3.2 0.00 0.00 0.00 60 1016.9
20260510201416 25 253 1.6 4.8 0.00 0.00 0.00 60 1016.8
20260510200912 25 106 0.0 1.6 0.00 0.00 0.00 58 1016.8
20260510200412 26 216 1.6 1.6 0.00 0.00 0.00 58 1016.9
20260510195906 25 57 1.6 1.6 0.00 0.00 0.00 59 1017.1
20260510195403 25 146 1.6 3.2 0.00 0.00 0.00 61 1017.0
20260510194857 25 241 0.0 1.6 0.00 0.00 0.00 63 1016.9
20260510194354 24 265 1.6 3.2 0.00 0.00 0.00 63 1017.0
20260510193850 23 231 1.6 1.6 0.00 0.00 0.00 63 1017.1
20260510193345 22 231 1.6 1.6 0.00 0.00 0.00 66 1017.1
20260510192841 23 212 0.0 0.0 0.00 0.00 0.00 65 1017.3
20260510192337 22 164 0.0 4.8 0.00 0.00 0.00 67 1017.3
20260510191833 22 220 1.6 1.6 0.00 0.00 0.00 68 1017.4
20260510191329 22 245 1.6 4.8 0.00 0.00 0.00 63 1017.4
20260510190827 22 212 3.2 4.8 0.00 0.00 0.00 59 1017.4
20260510190324 23 259 1.6 4.8 0.00 0.00 0.00 59 1017.2
20260510185815 23 311 1.6 4.8 0.00 0.00 0.00 58 1017.2
20260510185313 23 334 1.6 6.4 0.00 0.00 0.00 57 1017.1
20260510184810 24 286 3.2 4.8 0.00 0.00 0.00 57 1017.1
20260510184307 25 214 1.6 9.7 0.00 0.00 0.00 56 1017.0
20260510183806 24 105 0.0 3.2 0.00 0.00 0.00 57 1017.0
20260510183301 23 344 0.0 4.8 0.00 0.00 0.00 60 1017.0
20260510182758 25 253 0.0 6.4 0.00 0.00 0.00 58 1016.9
20260510182254 24 287 1.6 3.2 0.00 0.00 0.00 58 1016.9
20260510181751 24 142 1.6 3.2 0.00 0.00 0.00 58 1017.0
20260510181248 25 94 9.7 12.9 0.00 0.00 0.00 57 1016.9
20260510180744 26 229 1.6 1.6 0.00 0.00 0.00 55 1016.8
20260510180242 25 229 0.0 1.6 0.00 0.00 0.00 59 1017.1
20260510175738 25 229 3.2 4.8 0.00 0.00 0.00 58 1017.0
20260510175233 25 114 3.2 6.4 0.00 0.00 0.00 57 1016.7
20260510174731 25 225 0.0 1.6 0.00 0.00 0.00 57 1016.6
20260510174228 25 225 0.0 0.0 0.00 0.00 0.00 61 1016.7
20260510173724 25 235 1.6 3.2 0.00 0.00 0.00 59 1017.0
20260510173220 24 219 0.0 3.2 0.00 0.00 0.00 56 1016.8
20260510172715 24 221 0.0 3.2 0.00 0.00 0.00 60 1016.9
20260510172212 25 224 0.0 3.2 0.00 0.00 0.00 64 1016.9
20260510171709 23 224 0.0 1.6 0.00 0.00 0.00 63 1016.8
20260510171206 22 224 1.6 3.2 0.00 0.00 0.00 62 1016.8
20260510170703 22 225 1.6 1.6 0.00 0.00 0.00 62 1017.0
20260510170159 21 224 0.0 1.6 0.00 0.00 0.00 64 1017.1
20260510165655 21 224 0.0 0.0 0.00 0.00 0.00 65 1017.1
20260510165151 22 224 1.6 3.2 0.00 0.00 0.00 63 1017.1
20260510164649 22 227 0.0 0.0 0.00 0.00 0.00 62 1017.0
20260510164146 23 226 1.6 3.2 0.00 0.00 0.00 58 1016.9
20260510163641 22 227 0.0 1.6 0.00 0.00 0.00 61 1016.8
20260510163137 22 226 3.2 4.8 0.00 0.00 0.00 58 1016.9
20260510162631 22 234 1.6 3.2 0.00 0.00 0.00 59 1016.9
20260510162128 23 235 0.0 3.2 0.00 0.00 0.00 60 1016.8
20260510161624 23 234 0.0 0.0 0.00 0.00 0.00 55 1016.9
20260510161121 23 254 3.2 4.8 0.00 0.00 0.00 59 1017.0
20260510160618 23 241 1.6 3.2 0.00 0.00 0.00 57 1016.9
20260510160118 23 16 3.2 3.2 0.00 0.00 0.00 57 1017.0
20260510155615 23 20 0.0 3.2 0.00 0.00 0.00 59 1016.8
20260510155111 23 161 0.0 3.2 0.00 0.00 0.00 58 1016.9
20260510154606 23 234 0.0 3.2 0.00 0.00 0.00 58 1016.7
20260510154102 23 232 1.6 3.2 0.00 0.00 0.00 60 1016.9
20260510153557 23 242 3.2 4.8 0.00 0.00 0.00 57 1016.9
20260510153054 23 201 0.0 1.6 0.00 0.00 0.00 60 1016.9
20260510152551 24 255 0.0 3.2 0.00 0.00 0.00 58 1016.7
20260510152047 23 70 0.0 0.0 0.00 0.00 0.00 58 1016.8
20260510151543 23 65 3.2 3.2 0.00 0.00 0.00 57 1016.5
20260510151041 23 223 3.2 4.8 0.00 0.00 0.00 60 1016.5
20260510150536 23 220 3.2 6.4 0.00 0.00 0.00 57 1016.4
20260510150032 23 242 0.0 3.2 0.00 0.00 0.00 58 1016.6
20260510145529 23 121 1.6 3.2 0.00 0.00 0.00 63 1016.7
20260510145026 22 195 0.0 1.6 0.00 0.00 0.00 63 1016.7
20260510144522 22 157 1.6 3.2 0.00 0.00 0.00 64 1016.8
20260510144019 22 288 0.0 3.2 0.00 0.00 0.00 63 1016.8
20260510143514 22 95 1.6 3.2 0.00 0.00 0.00 63 1016.8
20260510143011 22 254 3.2 3.2 0.00 0.00 0.00 61 1016.9
20260510142507 22 266 3.2 4.8 0.00 0.00 0.00 64 1016.6
20260510142004 22 37 0.0 1.6 0.00 0.00 0.00 64 1016.7
20260510141500 22 274 0.0 0.0 0.00 0.00 0.00 66 1016.8
20260510140958 22 236 0.0 1.6 0.00 0.00 0.00 67 1016.7
20260510140454 21 39 0.0 1.6 0.00 0.00 0.00 67 1016.7
20260510135953 20 119 0.0 3.2 0.00 0.00 0.00 69 1016.9
20260510135449 20 43 0.0 0.0 0.00 0.00 0.00 74 1016.9
20260510134946 20 336 1.6 3.2 0.00 0.00 0.00 68 1016.9
20260510134443 20 12 1.6 1.6 0.00 0.00 0.00 71 1016.8
20260510133940 20 245 0.0 1.6 0.00 0.00 0.00 69 1016.8
20260510133436 21 331 3.2 4.8 0.00 0.00 0.00 67 1016.9
20260510132932 20 183 0.0 1.6 0.00 0.00 0.00 71 1016.6
20260510132429 21 116 0.0 1.6 0.00 0.00 0.00 73 1016.8
20260510131926 20 76 0.0 0.0 0.00 0.00 0.00 72 1016.6
20260510131424 20 75 0.0 0.0 0.00 0.00 0.00 71 1016.7
20260510130920 20 76 1.6 3.2 0.00 0.00 0.00 72 1016.3
20260510130417 19 76 0.0 1.6 0.00 0.00 0.00 76 1016.6
20260510125914 18 75 0.0 0.0 0.00 0.00 0.00 79 1016.4
20260510125405 18 76 1.6 1.6 0.00 0.00 0.00 82 1016.5
20260510124902 17 103 0.0 0.0 0.00 0.00 0.00 86 1016.3
20260510124358 16 103 0.0 1.6 0.00 0.00 0.00 87 1016.4
20260510123854 16 103 0.0 0.0 0.00 0.00 0.00 91 1016.6
20260510123349 15 103 0.0 0.0 0.00 0.00 0.00 98 1016.3
20260510122846 14 103 0.0 0.0 0.00 0.00 0.00 99 1016.3
20260510122341 13 106 0.0 0.0 0.00 0.00 0.00 99 1016.1
20260510121838 13 106 0.0 0.0 0.00 0.00 0.00 99 1016.3
20260510121336 12 106 0.0 0.0 0.00 0.00 0.00 99 1016.3
20260510120833 12 106 0.0 0.0 0.00 0.00 0.00 99 1016.2
20260510120330 12 106 0.0 0.0 0.00 0.00 0.00 99 1016.5
20260510115825 11 106 0.0 0.0 0.00 0.00 0.00 99 1016.1
20260510115323 10 106 0.0 0.0 0.00 0.00 0.00 99 1016.1
20260510114819 9 106 0.0 0.0 0.00 0.00 0.00 99 1016.2
20260510114316 9 111 0.0 0.0 0.00 0.00 0.00 99 1016.1
20260510113811 8 111 0.0 0.0 0.00 0.00 0.00 99 1016.0
20260510113308 8 111 0.0 0.0 0.00 0.00 0.00 99 1015.8
20260510112805 8 111 0.0 0.0 0.00 0.00 0.00 99 1015.9
20260510112305 8 111 0.0 0.0 0.00 0.00 0.00 99 1015.9
20260510111757 8 111 0.0 0.0 0.00 0.00 0.00 99 1015.8
20260510111254 8 111 0.0 0.0 0.00 0.00 0.00 99 1015.6
20260510110754 7 111 0.0 0.0 0.00 0.00 0.00 99 1015.5
20260510110252 7 111 0.0 0.0 0.00 0.00 0.00 99 1015.2
20260510105752 7 111 0.0 0.0 0.00 0.00 0.00 99 1015.2
20260510105247 7 111 0.0 0.0 0.00 0.00 0.00 99 1015.2
20260510104743 7 111 0.0 0.0 0.00 0.00 0.00 99 1015.2
20260510104241 7 111 0.0 0.0 0.00 0.00 0.00 99 1015.3
20260510103737 7 111 0.0 0.0 0.00 0.00 0.00 99 1015.2
20260510103235 7 111 0.0 0.0 0.00 0.00 0.00 99 1015.0
20260510102734 7 111 0.0 0.0 0.00 0.00 0.00 99 1015.0
20260510102230 7 110 0.0 0.0 0.00 0.00 0.00 99 1014.9
20260510101728 7 110 0.0 0.0 0.00 0.00 0.00 99 1015.0
20260510101226 7 110 0.0 0.0 0.00 0.00 0.00 99 1015.1
20260510100722 7 110 0.0 0.0 0.00 0.00 0.00 99 1015.1
20260510100221 7 110 0.0 0.0 0.00 0.00 0.00 99 1015.2
20260510095721 7 110 0.0 0.0 0.00 0.00 0.00 99 1014.9
20260510095216 7 110 0.0 0.0 0.00 0.00 0.00 99 1014.9
20260510094715 7 110 0.0 0.0 0.00 0.00 0.00 99 1014.7
20260510094211 7 110 0.0 0.0 0.00 0.00 0.00 99 1014.4
20260510093707 7 110 0.0 0.0 0.00 0.00 0.00 99 1014.5
20260510093204 7 110 0.0 0.0 0.00 0.00 0.00 99 1014.6
20260510092700 7 110 0.0 0.0 0.00 0.00 0.00 99 1014.6
20260510092156 7 110 0.0 0.0 0.00 0.00 0.00 99 1014.5
20260510091652 7 110 0.0 0.0 0.00 0.00 0.00 99 1014.4
20260510091148 7 110 0.0 0.0 0.00 0.00 0.00 99 1014.2
20260510090645 7 110 0.0 0.0 0.00 0.00 0.00 99 1014.4
20260510090142 7 110 0.0 0.0 0.00 0.00 0.00 99 1014.3
20260510085637 7 110 0.0 0.0 0.00 0.00 0.00 99 1014.3
20260510085132 7 110 0.0 0.0 0.00 0.00 0.00 99 1014.1
20260510084629 7 110 0.0 0.0 0.00 0.00 0.00 99 1014.1
20260510084126 7 110 0.0 0.0 0.00 0.00 0.00 99 1014.2
20260510083622 7 110 0.0 0.0 0.00 0.00 0.00 99 1014.0
20260510083119 7 110 0.0 0.0 0.00 0.00 0.00 99 1014.1
20260510082615 7 110 0.0 0.0 0.00 0.00 0.00 99 1013.9
20260510082111 7 110 0.0 0.0 0.00 0.00 0.00 99 1013.9
20260510081606 7 110 0.0 0.0 0.00 0.00 0.00 99 1014.1
20260510081102 7 110 0.0 0.0 0.00 0.00 0.00 99 1013.7
20260510080602 7 110 0.0 0.0 0.00 0.00 0.00 99 1014.0
20260510080058 7 110 0.0 0.0 0.00 0.00 0.00 99 1013.9
20260510075556 7 110 0.0 0.0 0.00 0.00 0.00 99 1013.7
20260510075052 7 110 0.0 0.0 0.00 0.00 0.00 99 1013.8
20260510074550 8 110 0.0 0.0 0.00 0.00 0.00 99 1013.7
20260510074045 8 110 0.0 0.0 0.00 0.00 0.00 99 1014.0
20260510073542 8 110 0.0 0.0 0.00 0.00 0.00 99 1013.8
20260510073039 8 110 0.0 0.0 0.00 0.00 0.00 99 1013.9
20260510072535 8 110 0.0 0.0 0.00 0.00 0.00 99 1013.8
20260510072031 8 110 0.0 0.0 0.00 0.00 0.00 99 1013.7
20260510071527 8 110 0.0 0.0 0.00 0.00 0.00 99 1013.7
20260510071026 8 156 0.0 0.0 0.00 0.00 0.00 99 1013.8
20260510070522 8 156 0.0 0.0 0.00 0.00 0.00 99 1013.8
20260510070019 8 156 0.0 0.0 0.00 0.00 0.00 99 1013.7
20260510065515 8 157 0.0 0.0 0.00 0.00 0.00 99 1013.8
20260510065011 8 157 0.0 0.0 0.00 0.00 0.00 99 1013.8
20260510064508 8 157 0.0 0.0 0.00 0.00 0.00 99 1013.8
20260510064005 8 157 0.0 0.0 0.00 0.00 0.00 99 1013.6
20260510063502 8 158 0.0 0.0 0.00 0.00 0.00 99 1013.8
20260510062959 8 158 0.0 0.0 0.00 0.00 0.00 99 1013.8
20260510062455 8 158 0.0 0.0 0.00 0.00 0.00 99 1013.8
20260510061949 8 158 0.0 0.0 0.00 0.00 0.00 99 1014.0
20260510061447 8 158 0.0 0.0 0.00 0.00 0.00 99 1013.8
20260510060943 8 159 0.0 0.0 0.00 0.00 0.00 99 1013.9
20260510060440 8 159 0.0 0.0 0.00 0.00 0.00 99 1014.1
20260510055936 8 159 0.0 0.0 0.00 0.00 0.00 99 1014.0
20260510055432 8 159 0.0 0.0 0.00 0.00 0.00 99 1013.8
20260510054925 8 159 0.0 0.0 0.00 0.00 0.00 99 1014.0
20260510054420 8 159 0.0 0.0 0.00 0.00 0.00 99 1014.0
20260510053915 8 159 0.0 0.0 0.00 0.00 0.00 99 1014.0
20260510053411 8 159 0.0 0.0 0.00 0.00 0.00 99 1014.0
20260510052908 8 159 0.0 0.0 0.00 0.00 0.00 99 1014.0
20260510052403 8 159 0.0 0.0 0.00 0.00 0.00 99 1014.0
20260510051900 8 159 0.0 0.0 0.00 0.00 0.00 99 1014.3
20260510051356 8 159 0.0 0.0 0.00 0.00 0.00 99 1014.3
20260510050853 8 159 0.0 0.0 0.00 0.00 0.00 99 1014.2
20260510050350 8 159 0.0 0.0 0.00 0.00 0.00 99 1014.2
20260510045847 9 159 0.0 0.0 0.00 0.00 0.00 99 1014.2
20260510045343 9 159 0.0 0.0 0.00 0.00 0.00 99 1014.2
20260510044841 9 159 0.0 0.0 0.00 0.00 0.00 99 1014.4
20260510044337 9 159 0.0 0.0 0.00 0.00 0.00 99 1014.4
20260510043834 9 159 0.0 0.0 0.00 0.00 0.00 99 1014.5
20260510043330 9 159 0.0 0.0 0.00 0.00 0.00 99 1014.3
20260510042828 9 159 0.0 0.0 0.00 0.00 0.00 99 1014.4
20260510042324 9 159 0.0 0.0 0.00 0.00 0.00 99 1014.4
20260510041820 9 159 0.0 0.0 0.00 0.00 0.00 99 1014.5
20260510041318 9 159 0.0 0.0 0.00 0.00 0.00 99 1014.5
20260510040815 9 159 0.0 0.0 0.00 0.00 0.00 99 1014.5
20260510040311 9 159 0.0 0.0 0.00 0.00 0.00 99 1014.3
20260510035807 9 159 0.0 0.0 0.00 0.00 0.00 99 1014.5
20260510035306 9 159 0.0 0.0 0.00 0.00 0.00 99 1014.4
20260510034759 10 159 0.0 0.0 0.00 0.00 0.00 99 1014.3
20260510034256 10 159 0.0 0.0 0.00 0.00 0.00 99 1014.3
20260510033752 10 159 0.0 0.0 0.00 0.00 0.00 99 1014.4
20260510033250 10 159 0.0 0.0 0.00 0.00 0.00 99 1014.4
20260510032746 10 159 0.0 0.0 0.00 0.00 0.00 99 1014.3
20260510032243 10 159 0.0 0.0 0.00 0.00 0.00 98 1014.2
20260510031738 10 159 0.0 0.0 0.00 0.00 0.00 98 1014.1
20260510031234 10 159 0.0 0.0 0.00 0.00 0.00 98 1014.3
20260510030733 10 159 0.0 0.0 0.00 0.00 0.00 98 1014.2
20260510030231 10 159 0.0 0.0 0.00 0.00 0.00 98 1014.2
20260510025728 10 159 0.0 0.0 0.00 0.00 0.00 98 1014.1
20260510025225 10 159 0.0 0.0 0.00 0.00 0.00 98 1014.2
20260510024722 10 159 0.0 0.0 0.00 0.00 0.00 97 1014.1
20260510024219 11 159 0.0 0.0 0.00 0.00 0.00 97 1014.0
20260510023714 11 159 0.0 0.0 0.00 0.00 0.00 97 1013.8
20260510023211 11 159 0.0 0.0 0.00 0.00 0.00 97 1013.8
20260510022707 11 159 0.0 0.0 0.00 0.00 0.00 97 1014.0
20260510022202 11 159 0.0 0.0 0.00 0.00 0.00 96 1013.6
20260510021657 11 159 0.0 0.0 0.00 0.00 0.00 96 1013.6
20260510021155 11 159 0.0 0.0 0.00 0.00 0.00 96 1013.4
20260510020650 11 159 0.0 0.0 0.00 0.00 0.00 95 1013.4
20260510020145 11 159 0.0 0.0 0.00 0.00 0.00 95 1013.4
20260510015642 12 159 0.0 0.0 0.00 0.00 0.00 94 1013.2
20260510015138 12 159 0.0 0.0 0.00 0.00 0.00 93 1013.2
20260510014633 12 159 0.0 0.0 0.00 0.00 0.00 93 1013.2
20260510014131 12 159 0.0 0.0 0.00 0.00 0.00 92 1013.1
20260510013631 12 159 0.0 0.0 0.00 0.00 0.00 92 1013.0
20260510013126 12 159 0.0 0.0 0.00 0.00 0.00 91 1012.7
20260510012626 13 160 0.0 0.0 0.00 0.00 0.00 91 1012.6
20260510012123 13 162 0.0 0.0 0.00 0.00 0.00 90 1012.8
20260510011622 13 162 0.0 0.0 0.00 0.00 0.00 89 1013.0
20260510011118 13 163 0.0 0.0 0.00 0.00 0.00 89 1012.7
20260510010615 13 165 0.0 0.0 0.00 0.00 0.00 87 1012.6
20260510010112 13 165 0.0 0.0 0.00 0.00 0.00 86 1012.4
20260510005607 14 165 0.0 0.0 0.00 0.00 0.00 85 1012.4
20260510005105 15 165 0.0 0.0 0.00 0.00 0.00 84 1012.3
20260510004603 15 165 0.0 0.0 0.00 0.00 0.00 83 1012.6
20260510004101 15 165 0.0 0.0 0.00 0.00 0.00 81 1012.2
20260510003557 16 165 0.0 0.0 0.00 0.00 0.00 80 1012.2
20260510003053 16 166 0.0 0.0 0.00 0.00 0.00 79 1012.1
20260510002548 16 169 0.0 0.0 0.00 0.00 0.00 78 1012.0
20260510002046 16 169 0.0 0.0 0.00 0.00 0.00 76 1012.1
20260510001543 17 169 0.0 0.0 0.00 0.00 0.00 74 1012.2
20260510001042 17 169 0.0 0.0 0.00 0.00 0.00 74 1011.7
20260510000542 17 169 0.0 0.0 0.00 0.00 0.00 73 1012.0
20260510000039 18 188 0.0 0.0 0.00 0.00 0.00 72 1011.7
20260509235535 18 204 0.0 0.0 0.00 0.00 0.00 70 1011.7
20260509235032 19 211 0.0 0.0 0.00 0.00 0.00 69 1011.7
20260509234528 19 206 0.0 0.0 0.00 0.00 0.00 67 1011.8
20260509234027 20 286 1.6 3.2 0.00 0.00 0.00 65 1011.7
20260509233524 20 282 0.0 3.2 0.00 0.00 0.00 64 1011.7
20260509233021 21 292 1.6 3.2 0.00 0.00 0.00 60 1011.7
20260509232517 21 143 0.0 0.0 0.00 0.00 0.00 59 1011.7
20260509232014 21 295 0.0 0.0 0.00 0.00 0.00 59 1012.1
20260509231510 21 46 0.0 0.0 0.00 0.00 0.00 62 1011.9
20260509231008 21 20 0.0 1.6 0.00 0.00 0.00 61 1011.8
20260509230505 22 74 0.0 0.0 0.00 0.00 0.00 58 1011.6
20260509230001 22 93 0.0 0.0 0.00 0.00 0.00 60 1011.6
20260509225452 21 77 1.6 3.2 0.00 0.00 0.00 58 1011.6
20260509224948 21 2 0.0 1.6 0.00 0.00 0.00 57 1011.5
20260509224443 22 216 0.0 3.2 0.00 0.00 0.00 58 1011.4
20260509223941 22 44 0.0 0.0 0.00 0.00 0.00 58 1011.6
20260509223437 22 60 0.0 0.0 0.00 0.00 0.00 57 1011.7
20260509222935 23 319 3.2 4.8 0.00 0.00 0.00 54 1011.5
20260509222429 24 22 0.0 1.6 0.00 0.00 0.00 53 1011.5
20260509221926 24 47 1.6 4.8 0.00 0.00 0.00 51 1011.4
20260509221423 25 57 0.0 1.6 0.00 0.00 0.00 52 1011.6
20260509220918 26 248 1.6 1.6 0.00 0.00 0.00 48 1011.5
20260509220415 25 104 0.0 0.0 0.00 0.00 0.00 55 1011.4
20260509215911 23 153 0.0 0.0 0.00 0.00 0.00 54 1011.7
20260509215406 25 168 3.2 4.8 0.00 0.00 0.00 52 1011.7
20260509214904 24 101 0.0 4.8 0.00 0.00 0.00 54 1011.7
20260509214401 26 154 0.0 3.2 0.00 0.00 0.00 50 1011.8
20260509213858 26 253 1.6 3.2 0.00 0.00 0.00 47 1011.8
20260509213354 25 122 0.0 0.0 0.00 0.00 0.00 51 1011.9
20260509212851 24 274 1.6 1.6 0.00 0.00 0.00 54 1011.8
20260509212343 25 206 0.0 1.6 0.00 0.00 0.00 52 1011.8
20260509211839 25 61 1.6 3.2 0.00 0.00 0.00 51 1011.8
20260509211334 25 113 0.0 1.6 0.00 0.00 0.00 50 1012.0
20260509210831 25 162 1.6 9.7 0.00 0.00 0.00 52 1011.9
20260509210329 25 38 0.0 1.6 0.00 0.00 0.00 54 1011.7
20260509205828 25 38 1.6 3.2 0.00 0.00 0.00 52 1011.8
20260509205323 23 340 0.0 1.6 0.00 0.00 0.00 59 1011.9
20260509204820 22 56 1.6 1.6 0.00 0.00 0.00 59 1012.1
20260509204316 22 67 0.0 3.2 0.00 0.00 0.00 60 1011.7
20260509203813 21 62 0.0 1.6 0.00 0.00 0.00 60 1011.9